Regional Weather Roundup
Issued by NWS

Home | Current Version | Previous Version | Graphics & Text | Print | Product List | Glossary On
Versions: 1 2 3 4 5 6 7 8 9 10 11 12 13 14 15 16 17 18 19 20 21 22 23 24 25 26 27 28
000
ASUS45 KSLC 221310
RWRUT

UTAH REGIONAL WEATHER ROUNDUP
NATIONAL WEATHER SERVICE SALT LAKE CITY UT
700 AM MDT SAT JUL 22 2017

UTZ001>011-023>025-221400-

NORTHERN UTAH

CITY           SKY/WX    TMP DP  RH WIND       PRES   REMARKS
BRIGHAM CITY   CLEAR     63  36  36 CALM      30.12R
HILL AFB       CLEAR     68  44  42 E15       30.14R
LOGAN          CLEAR     56  47  71 CALM      30.16R
OGDEN          CLEAR     69  45  41 S8        30.11R
SALT LAKE CITY PTCLDY    76  56  49 S9        30.09R
TOOELE VALLEY  CLEAR     70  50  49 S7        30.10S
WENDOVER       CLEAR     75  33  21 NW6       30.10R
HEBER CITY     CLEAR     55  50  82 CALM      30.23R
WEST JORDAN    CLEAR     73  60  63 S7        30.14R

$$

UTZ011>015-024>027-221400-

CENTRAL/NORTHEAST UTAH

CITY           SKY/WX    TMP DP  RH WIND       PRES   REMARKS
PROVO AIRPORT  CLEAR     68  53  58 SE9       30.15R
MOAB/CANYONLAN PTCLDY    64  61  90 NW5       30.15R
DELTA          CLEAR     68  52  56 NE8       30.13R
PRICE          PTCLDY    58  53  84 CALM      30.24R
ROOSEVELT      CLOUDY    57  52  82 CALM      30.24S
VERNAL         CLOUDY    60  53  77 CALM      30.23R

$$

UTZ013>016-019>022-027-221400-

SOUTHERN UTAH

CITY           SKY/WX    TMP DP  RH WIND       PRES   REMARKS
BRYCE CANYON   PTCLDY    51  50  96 W6        30.36R
CEDAR CITY     PTCLDY    66  51  58 SE8       30.20R
MILFORD        PTCLDY    63  52  67 S3        30.14R
HANKSVILLE     CLEAR     63  54  72 CALM      30.18R
BLANDING       CLEAR     62  54  75 CALM      30.28R

$$

REGIONAL REPORTS     COLORADO/ARIZONA

CITY           SKY/WX    TMP DP  RH WIND       PRES   REMARKS
CRAIG, CO      CLOUDY    53  50  89 SE3       30.30R
GRAND JUNCTION CLOUDY    66  62  87 E7        30.18R
RIFLE, CO      CLOUDY    60  56  86 CALM      30.25R
MONTROSE, CO   CLOUDY    61  57  87 SE3       30.26R
CORTEZ, CO     CLOUDY    60  57  89 CALM      30.21R
COLORADO CITY    N/A     72  55  56 NE7       30.17S
PAGE, AZ       CLEAR     75  56  51 CALM      30.11R
GRAND CANYON   CLEAR     57  54  89 CALM      30.27S
KINGMAN, AZ    PTCLDY    76  57  51 S5        30.03S
FLAGSTAFF, AZ  PTCLDY    55  55 100 CALM      30.30R

$$

REGIONAL REPORTS    NEVADA/IDAHO/WYOMING

CITY           SKY/WX    TMP DP  RH WIND       PRES   REMARKS
LAS VEGAS, NV  PTCLDY    87  46  24 W5        29.89S
ELY, NY        CLEAR     51  38  60 S8        30.26R
ELKO, NV       CLEAR     54  33  45 CALM      30.19R
POCATELLO, ID  CLEAR     55  36  48 S5        30.18R
BURLEY, ID     CLEAR     53  43  68 S3        30.15R
FORT BRIDGER,    N/A     60  37  41 S5        30.34S
EVANSTON, WY   CLOUDY    59  41  51 SE3       30.33R
ROCK SPRINGS,  CLOUDY    56  48  74 W3        30.31R
KEMMERER, WY     N/A     50  32  50 N10       30.35R

$$




USA.gov is the U.S. government's official web portal to all federal, state and local government web resources and services.